星链-31644 (STARLINK-31644 )

导读 | 星芒AI

STARLINK-31644 是 SpaceX Starlink 项目中的一颗低轨通信卫星,属于第 14 批(v1.5)发射的星链卫星群。该卫星于 2023 年 11 月 18 日由猎鹰 9 号火箭从卡纳维拉尔角发射升空。它运行在约 540 公里的轨道高度,旨在为全球用户提供高速、低延迟的互联网服务。作为星链网络的一部分,STARLINK-31644 采用先进推进系统和激光通信技术,提高网络效率与稳定性。

基本信息
目录编号:
59391
目录名称:
STARLINK-31644
国际标识:
2024-062T
轨道中心:
EARTH
卫星名称:
星链-31644
卫星全名:
星链-31644 (STARLINK-31644 )
卫星状态:
在轨 (已飞行627 天)
发射日期:
2024-04-02 UTC
国别 :
美国 (US)
星等 :
--
轨道信息
数据来源 国际轨道数据
星历时间: 2025-12-19T13:12:01+0800
19小时前
查看轨道信息
半长轴: 6853.413km
偏心率: 0.0000715
轨道倾角: 53.160°
近地点辐角 115.995°
升交点赤经 272.083°
平近点角 244.113°
近地点: 474.785km
远地点: 475.767km
周期: 94.107分钟
每日圈数: 15.301797
详细信息
固有亮度:
5
最大亮度:
0.3
卫星平台:
Starlink v2.0 mini
覆盖范围:
全球
运营商:
太空探索技术公司
运营商所在国:
美国
制造商(研发单位):
太空探索技术公司
制造商所在国:
美国
使用方式:
暂无
卫星简介
星链(Starlink)计划是由太空探索技术公司(SpaceX)提出的一个巨型低轨卫星互联网星座项目,计划在2019年至2024年间在太空搭建由约1.2万颗卫星组成的“星链”网络,其中1584颗将部署在地球上空550千米处的近地轨道,并从2020年开始工作。该卫星仍在工作。
2D轨道图
3D轨道图
轨道高度分析图
轨道倾角分析图
轨道综合分析图
查看轨道综合分析图